Regional Weather Roundup
Issued by NWS

Home | Current Version | Previous Version | Text Only | Print | Product List | Glossary Off
Versions: 1 2 3 4 5 6 7 8 9 10 11 12 13 14 15 16 17 18 19 20 21 22 23 24 25 26 27 28 29 30 31 32 33 34 35 36 37 38 39 40 41 42 43 44 45 46 47 48 49 50

000
ASUS43 KLMK 251910
RWRKY
KENTUCKY REGIONAL WEATHER ROUNDUP
NATIONAL WEATHER SERVICE LOUISVILLE KY
200 PM EST THU DEC 25 2014

NOTE "FAIR" INDICATES FEW OR NO CLOUDS BELOW 12,000 FEET
WITH NO SIGNIFICANT WEATHER AND/OR OBSTRUCTIONS TO VISIBILITY.

KYZ001>023-026-027-061>063-070>075-252000-
WESTERN AND SOUTH CENTRAL KENTUCKY

CITY           SKY/WX    TMP DP  RH WIND       PRES   REMARKS
PADUCAH        SUNNY     48  35  60 S7G17     30.12F
HENDERSON      PTSUNNY   48  34  57 S17       30.12S
OWENSBORO      PTSUNNY   47  35  63 S17       30.14S
HOPKINSVILLE   SUNNY     49  34  56 VRB6      30.14F
BOWLING GREEN  CLOUDY    46  33  60 S14       30.17F
GLASGOW        CLOUDY    43  33  67 SW9G16    30.16F
$$

KYZ024-025-028>034-038-045-046-053-252000-
NORTH CENTRAL KENTUCKY

CITY           SKY/WX    TMP DP  RH WIND       PRES   REMARKS
LOUISVILLE/SDF PTSUNNY   44  32  62 SW10      30.14R
LOUISVILLE/LOU PTSUNNY   44  32  62 SW10      30.14S
FORT KNOX      CLOUDY    42  33  68 S13       30.12F
$$

KYZ035>037-039>044-047>052-055>060-089>105-252000-
NORTHEAST KENTUCKY

CITY           SKY/WX    TMP DP  RH WIND       PRES   REMARKS
LEXINGTON      CLOUDY    41  32  70 SW10      30.14F
COVINGTON      CLOUDY    40  30  67 SW8       30.10F WCI  34
FRANKFORT      CLOUDY    41  31  67 SW14      30.13F
$$

KYZ054-064>069-076>088-106>120-252000-
SOUTHEAST KENTUCKY

CITY           SKY/WX    TMP DP  RH WIND       PRES   REMARKS
JACKSON        CLOUDY    42  30  62 W9        30.16S
LONDON         CLOUDY    43  30  60 W7        30.16F
SOMERSET       CLOUDY    41  32  70 SW7       30.18F
MIDDLESBORO    CLOUDY    46  32  59 SW5       30.18F
MONTICELLO     CLOUDY    44  34  68 S9        30.19F
$$



USA.gov is the U.S. government's official web portal to all federal, state and local government web resources and services.